Year,Month,Day,Hour,Minute,Value (Times are PST for windspeed in km/hr)
2016,11,02,00,00,0.00
2016,11,02,00,01,0.00
2016,11,02,00,02,0.10
2016,11,02,00,03,0.90
2016,11,02,00,04,2.30
2016,11,02,00,05,4.00
2016,11,02,00,06,3.20
2016,11,02,00,07,3.60
2016,11,02,00,08,2.20
2016,11,02,00,09,0.30
2016,11,02,00,10,0.50
2016,11,02,00,11,0.20
2016,11,02,00,12,0.00
2016,11,02,00,13,0.00
2016,11,02,00,14,0.30
2016,11,02,00,15,1.90
2016,11,02,00,16,2.00
2016,11,02,00,17,3.80
2016,11,02,00,18,5.00
2016,11,02,00,19,5.00
2016,11,02,00,20,6.30
2016,11,02,00,21,6.20
2016,11,02,00,22,5.20
2016,11,02,00,23,5.80
2016,11,02,00,24,4.10
2016,11,02,00,25,2.70
2016,11,02,00,26,5.20
2016,11,02,00,27,5.40
2016,11,02,00,28,1.30
2016,11,02,00,29,0.10
2016,11,02,00,30,0.00
2016,11,02,00,31,0.70
2016,11,02,00,32,0.10
2016,11,02,00,33,0.20
2016,11,02,00,34,0.70
2016,11,02,00,35,1.50
2016,11,02,00,36,1.50
2016,11,02,00,37,2.80
2016,11,02,00,38,3.10
2016,11,02,00,39,3.00
2016,11,02,00,40,1.80
2016,11,02,00,41,1.70
2016,11,02,00,42,0.20
2016,11,02,00,43,0.00
2016,11,02,00,44,0.00
2016,11,02,00,45,0.00
2016,11,02,00,46,0.00
2016,11,02,00,47,0.00
2016,11,02,00,48,0.00
2016,11,02,00,49,0.00
2016,11,02,00,50,0.00
2016,11,02,00,51,0.90
2016,11,02,00,52,1.70
2016,11,02,00,53,0.20
2016,11,02,00,54,0.00
2016,11,02,00,55,0.10
2016,11,02,00,56,0.20
2016,11,02,00,57,0.00
2016,11,02,00,58,1.60
2016,11,02,00,59,1.10
2016,11,02,01,00,0.20
2016,11,02,01,01,0.00
2016,11,02,01,02,0.00
2016,11,02,01,03,0.10
2016,11,02,01,04,0.50
2016,11,02,01,05,3.60
2016,11,02,01,06,3.90
2016,11,02,01,07,3.70
2016,11,02,01,08,4.50
2016,11,02,01,09,4.10
2016,11,02,01,10,4.10
2016,11,02,01,11,4.20
2016,11,02,01,12,3.50
2016,11,02,01,13,4.00
2016,11,02,01,14,2.90
2016,11,02,01,15,3.00
2016,11,02,01,16,4.70
2016,11,02,01,17,2.50
2016,11,02,01,18,1.30
2016,11,02,01,19,3.70
2016,11,02,01,20,3.20
2016,11,02,01,21,3.60
2016,11,02,01,22,5.30
2016,11,02,01,23,2.30
2016,11,02,01,24,0.90
2016,11,02,01,25,0.40
2016,11,02,01,26,1.50
2016,11,02,01,27,2.10
2016,11,02,01,28,0.00
2016,11,02,01,29,0.10
2016,11,02,01,30,0.00
2016,11,02,01,31,0.00
2016,11,02,01,32,0.00
2016,11,02,01,33,1.70
2016,11,02,01,34,1.00
2016,11,02,01,35,0.20
2016,11,02,01,36,0.80
2016,11,02,01,37,0.20
2016,11,02,01,38,4.20
2016,11,02,01,39,2.10
2016,11,02,01,40,0.00
2016,11,02,01,41,0.10
2016,11,02,01,42,2.10
2016,11,02,01,43,1.80
2016,11,02,01,44,2.10
2016,11,02,01,45,5.30
2016,11,02,01,46,5.90
2016,11,02,01,47,4.70
2016,11,02,01,48,3.60
2016,11,02,01,49,0.50
2016,11,02,01,50,3.10
2016,11,02,01,51,3.40
2016,11,02,01,52,0.70
2016,11,02,01,53,0.00
2016,11,02,01,54,0.00
2016,11,02,01,55,0.00
2016,11,02,01,56,0.00
2016,11,02,01,57,2.00
2016,11,02,01,58,5.30
2016,11,02,01,59,6.10
2016,11,02,02,00,6.10
2016,11,02,02,01,3.50
2016,11,02,02,02,6.70
2016,11,02,02,03,3.50
2016,11,02,02,04,0.60
2016,11,02,02,05,2.20
2016,11,02,02,06,3.10
2016,11,02,02,07,3.00
2016,11,02,02,08,3.10
2016,11,02,02,09,2.20
2016,11,02,02,10,2.80
2016,11,02,02,11,3.20
2016,11,02,02,12,4.40
2016,11,02,02,13,7.70
2016,11,02,02,14,7.70
2016,11,02,02,15,8.10
2016,11,02,02,16,6.80
2016,11,02,02,17,5.50
2016,11,02,02,18,0.30
2016,11,02,02,19,1.20
2016,11,02,02,20,1.80
2016,11,02,02,21,1.30
2016,11,02,02,22,1.60
2016,11,02,02,23,4.80
2016,11,02,02,24,4.10
2016,11,02,02,25,2.30
2016,11,02,02,26,0.30
2016,11,02,02,27,2.00
2016,11,02,02,28,6.20
2016,11,02,02,29,7.10
2016,11,02,02,30,8.70
2016,11,02,02,31,5.90
2016,11,02,02,32,6.90
2016,11,02,02,33,7.80
2016,11,02,02,34,9.60
2016,11,02,02,35,7.90
2016,11,02,02,36,4.10
2016,11,02,02,37,5.90
2016,11,02,02,38,6.50
2016,11,02,02,39,4.30
2016,11,02,02,40,4.80
2016,11,02,02,41,3.00
2016,11,02,02,42,2.30
2016,11,02,02,43,5.60
2016,11,02,02,44,4.70
2016,11,02,02,45,5.70
2016,11,02,02,46,5.30
2016,11,02,02,47,4.50
2016,11,02,02,48,7.40
2016,11,02,02,49,8.40
2016,11,02,02,50,6.80
2016,11,02,02,51,4.40
2016,11,02,02,52,6.10
2016,11,02,02,53,7.30
2016,11,02,02,54,6.10
2016,11,02,02,55,4.80
2016,11,02,02,56,2.30
2016,11,02,02,57,2.00
2016,11,02,02,58,0.00
2016,11,02,02,59,0.00
2016,11,02,03,00,0.10
2016,11,02,03,01,0.80
2016,11,02,03,02,1.60
2016,11,02,03,03,0.60
2016,11,02,03,04,1.20
2016,11,02,03,05,0.70
2016,11,02,03,06,0.00
2016,11,02,03,07,0.00
2016,11,02,03,08,0.00
2016,11,02,03,09,0.00
2016,11,02,03,10,1.80
2016,11,02,03,11,4.20
2016,11,02,03,12,5.50
2016,11,02,03,13,5.40
2016,11,02,03,14,4.90
2016,11,02,03,15,2.80
2016,11,02,03,16,0.20
2016,11,02,03,17,2.30
2016,11,02,03,18,2.70
2016,11,02,03,19,1.80
2016,11,02,03,20,1.30
2016,11,02,03,21,2.60
2016,11,02,03,22,0.20
2016,11,02,03,23,0.00
2016,11,02,03,24,0.00
2016,11,02,03,25,0.70
2016,11,02,03,26,0.00
2016,11,02,03,27,0.00
2016,11,02,03,28,0.00
2016,11,02,03,29,0.00
2016,11,02,03,30,0.00
2016,11,02,03,31,0.00
2016,11,02,03,32,0.00
2016,11,02,03,33,0.00
2016,11,02,03,34,0.00
2016,11,02,03,35,0.00
2016,11,02,03,36,0.00
2016,11,02,03,37,0.00
2016,11,02,03,38,0.90
2016,11,02,03,39,1.20
2016,11,02,03,40,0.40
2016,11,02,03,41,0.20
2016,11,02,03,42,3.00
2016,11,02,03,43,3.00
2016,11,02,03,44,4.10
2016,11,02,03,45,5.60
2016,11,02,03,46,4.80
2016,11,02,03,47,3.20
2016,11,02,03,48,2.30
2016,11,02,03,49,3.20
2016,11,02,03,50,1.80
2016,11,02,03,51,3.90
2016,11,02,03,52,4.20
2016,11,02,03,53,4.60
2016,11,02,03,54,7.10
2016,11,02,03,55,4.70
2016,11,02,03,56,8.40
2016,11,02,03,57,9.90
2016,11,02,03,58,6.70
2016,11,02,03,59,7.50
2016,11,02,04,00,7.20
2016,11,02,04,01,7.30
2016,11,02,04,02,9.50
2016,11,02,04,03,9.20
2016,11,02,04,04,10.00
2016,11,02,04,05,11.50
2016,11,02,04,06,10.80
2016,11,02,04,07,9.30
2016,11,02,04,08,9.50
2016,11,02,04,09,9.50
2016,11,02,04,10,8.10
2016,11,02,04,11,8.30
2016,11,02,04,12,7.40
2016,11,02,04,13,8.70
2016,11,02,04,14,11.60
2016,11,02,04,15,10.00
2016,11,02,04,16,9.70
2016,11,02,04,17,9.10
2016,11,02,04,18,6.50
2016,11,02,04,19,3.10
2016,11,02,04,20,3.80
2016,11,02,04,21,4.60
2016,11,02,04,22,2.60
2016,11,02,04,23,6.80
2016,11,02,04,24,6.60
2016,11,02,04,25,2.10
2016,11,02,04,26,0.40
2016,11,02,04,27,0.00
2016,11,02,04,28,1.20
2016,11,02,04,29,4.80
2016,11,02,04,30,2.60
2016,11,02,04,31,1.60
2016,11,02,04,32,0.80
2016,11,02,04,33,0.30
2016,11,02,04,34,0.00
2016,11,02,04,35,0.00
2016,11,02,04,36,1.70
2016,11,02,04,37,4.80
2016,11,02,04,38,3.70
2016,11,02,04,39,4.80
2016,11,02,04,40,3.50
2016,11,02,04,41,3.10
2016,11,02,04,42,5.40
2016,11,02,04,43,5.00
2016,11,02,04,44,3.20
2016,11,02,04,45,0.30
2016,11,02,04,46,2.60
2016,11,02,04,47,4.50
2016,11,02,04,48,3.90
2016,11,02,04,49,3.40
2016,11,02,04,50,3.20
2016,11,02,04,51,4.50
2016,11,02,04,52,2.90
2016,11,02,04,53,2.60
2016,11,02,04,54,4.30
2016,11,02,04,55,4.80
2016,11,02,04,56,4.20
2016,11,02,04,57,6.00
2016,11,02,04,58,4.50
2016,11,02,04,59,3.60
2016,11,02,05,00,6.40
2016,11,02,05,01,6.70
2016,11,02,05,02,5.80
2016,11,02,05,03,6.40
2016,11,02,05,04,5.70
2016,11,02,05,05,4.60
2016,11,02,05,06,6.10
2016,11,02,05,07,6.70
2016,11,02,05,08,5.30
2016,11,02,05,09,6.60
2016,11,02,05,10,7.90
2016,11,02,05,11,8.20
2016,11,02,05,12,7.90
2016,11,02,05,13,7.30
2016,11,02,05,14,8.10
2016,11,02,05,15,6.70
2016,11,02,05,16,8.10
2016,11,02,05,17,6.90
2016,11,02,05,18,5.30
2016,11,02,05,19,6.10
2016,11,02,05,20,7.80
2016,11,02,05,21,9.10
2016,11,02,05,22,9.40
2016,11,02,05,23,8.70
2016,11,02,05,24,7.20
2016,11,02,05,25,5.20
2016,11,02,05,26,5.10
2016,11,02,05,27,5.30
2016,11,02,05,28,6.00
2016,11,02,05,29,6.00
2016,11,02,05,30,5.60
2016,11,02,05,31,4.10
2016,11,02,05,32,5.00
2016,11,02,05,33,6.20
2016,11,02,05,34,7.30
2016,11,02,05,35,5.70
2016,11,02,05,36,6.90
2016,11,02,05,37,8.10
2016,11,02,05,38,8.80
2016,11,02,05,39,7.70
2016,11,02,05,40,6.90
2016,11,02,05,41,5.80
2016,11,02,05,42,5.50
2016,11,02,05,43,10.50
2016,11,02,05,44,6.10
2016,11,02,05,45,9.40
2016,11,02,05,46,8.90
2016,11,02,05,47,10.10
2016,11,02,05,48,9.50
2016,11,02,05,49,10.80
2016,11,02,05,50,10.00
2016,11,02,05,51,8.80
2016,11,02,05,52,8.90
2016,11,02,05,53,10.90
2016,11,02,05,54,9.70
2016,11,02,05,55,9.10
2016,11,02,05,56,8.90
2016,11,02,05,57,5.40
2016,11,02,05,58,6.70
2016,11,02,05,59,6.60
2016,11,02,06,00,6.90
2016,11,02,06,01,5.70
2016,11,02,06,02,5.30
2016,11,02,06,03,9.60
2016,11,02,06,04,11.00
2016,11,02,06,05,11.10
2016,11,02,06,06,10.30
2016,11,02,06,07,8.10
2016,11,02,06,08,8.70
2016,11,02,06,09,9.20
2016,11,02,06,10,9.10
2016,11,02,06,11,8.20
2016,11,02,06,12,4.80
2016,11,02,06,13,5.60
2016,11,02,06,14,8.50
2016,11,02,06,15,11.10
2016,11,02,06,16,8.80
2016,11,02,06,17,9.10
2016,11,02,06,18,9.40
2016,11,02,06,19,5.70
2016,11,02,06,20,4.10
2016,11,02,06,21,4.30
2016,11,02,06,22,2.90
2016,11,02,06,23,2.90
2016,11,02,06,24,5.70
2016,11,02,06,25,8.70
2016,11,02,06,26,12.90
2016,11,02,06,27,8.50
2016,11,02,06,28,6.20
2016,11,02,06,29,5.70
2016,11,02,06,30,5.40
2016,11,02,06,31,5.10
2016,11,02,06,32,7.50
2016,11,02,06,33,7.80
2016,11,02,06,34,7.80
2016,11,02,06,35,10.30
2016,11,02,06,36,8.50
2016,11,02,06,37,5.80
2016,11,02,06,38,5.50
2016,11,02,06,39,1.90
2016,11,02,06,40,2.80
2016,11,02,06,41,2.90
2016,11,02,06,42,0.80
2016,11,02,06,43,0.40
2016,11,02,06,44,2.40
2016,11,02,06,45,2.30
2016,11,02,06,46,1.80
2016,11,02,06,47,0.00
2016,11,02,06,48,1.20
2016,11,02,06,49,1.90
2016,11,02,06,50,4.00
2016,11,02,06,51,1.70
2016,11,02,06,52,6.90
2016,11,02,06,53,8.90
2016,11,02,06,54,8.10
2016,11,02,06,55,8.70
2016,11,02,06,56,9.40
2016,11,02,06,57,9.40
2016,11,02,06,58,10.70
2016,11,02,06,59,8.80
2016,11,02,07,00,6.70
2016,11,02,07,01,5.10
2016,11,02,07,02,10.00
2016,11,02,07,03,9.10
2016,11,02,07,04,7.10
2016,11,02,07,05,7.10
2016,11,02,07,06,9.80
2016,11,02,07,07,8.80
2016,11,02,07,08,5.10
2016,11,02,07,09,2.80
2016,11,02,07,10,3.10
2016,11,02,07,11,5.10
2016,11,02,07,12,5.70
2016,11,02,07,13,6.80
2016,11,02,07,14,5.60
2016,11,02,07,15,9.20
2016,11,02,07,16,7.80
2016,11,02,07,17,7.80
2016,11,02,07,18,3.40
2016,11,02,07,19,3.80
2016,11,02,07,20,5.70
2016,11,02,07,21,5.70
2016,11,02,07,22,5.30
2016,11,02,07,23,7.10
2016,11,02,07,24,7.00
2016,11,02,07,25,4.40
2016,11,02,07,26,7.20
2016,11,02,07,27,6.40
2016,11,02,07,28,4.20
2016,11,02,07,29,2.60
2016,11,02,07,30,2.10
2016,11,02,07,31,3.40
2016,11,02,07,32,1.50
2016,11,02,07,33,1.00
2016,11,02,07,34,1.30
2016,11,02,07,35,4.20
2016,11,02,07,36,3.00
2016,11,02,07,37,1.80
2016,11,02,07,38,2.70
2016,11,02,07,39,5.40
2016,11,02,07,40,4.30
2016,11,02,07,41,4.60
2016,11,02,07,42,6.40
2016,11,02,07,43,4.90
2016,11,02,07,44,0.80
2016,11,02,07,45,3.10
2016,11,02,07,46,2.80
2016,11,02,07,47,2.90
2016,11,02,07,48,2.50
2016,11,02,07,49,4.20
2016,11,02,07,50,6.80
2016,11,02,07,51,7.40
2016,11,02,07,52,5.80
2016,11,02,07,53,5.80
2016,11,02,07,54,4.60
2016,11,02,07,55,5.70
2016,11,02,07,56,8.00
2016,11,02,07,57,8.50
2016,11,02,07,58,6.80
2016,11,02,07,59,5.80
2016,11,02,08,00,4.10
2016,11,02,08,01,4.70
2016,11,02,08,02,3.60
2016,11,02,08,03,4.50
2016,11,02,08,04,6.20
2016,11,02,08,05,7.10
2016,11,02,08,06,5.20
2016,11,02,08,07,4.00
2016,11,02,08,08,3.80
2016,11,02,08,09,6.30
2016,11,02,08,10,6.40
2016,11,02,08,11,8.50
2016,11,02,08,12,6.30
2016,11,02,08,13,4.30
2016,11,02,08,14,7.80
2016,11,02,08,15,10.00
2016,11,02,08,16,8.10
2016,11,02,08,17,6.40
2016,11,02,08,18,7.50
2016,11,02,08,19,3.80
2016,11,02,08,20,3.70
2016,11,02,08,21,1.50
2016,11,02,08,22,3.10
2016,11,02,08,23,2.80
2016,11,02,08,24,6.90
2016,11,02,08,25,5.80
2016,11,02,08,26,4.50
2016,11,02,08,27,3.90
2016,11,02,08,28,4.50
2016,11,02,08,29,6.10
2016,11,02,08,30,5.10
2016,11,02,08,31,5.00
2016,11,02,08,32,4.50
2016,11,02,08,33,3.90
2016,11,02,08,34,5.80
2016,11,02,08,35,5.80
2016,11,02,08,36,4.50
2016,11,02,08,37,3.20
2016,11,02,08,38,6.60
2016,11,02,08,39,7.30
2016,11,02,08,40,7.30
2016,11,02,08,41,9.20
2016,11,02,08,42,8.50
2016,11,02,08,43,7.90
2016,11,02,08,44,10.10
2016,11,02,08,45,8.10
2016,11,02,08,46,6.40
2016,11,02,08,47,7.60
2016,11,02,08,48,5.90
2016,11,02,08,49,10.70
2016,11,02,08,50,8.90
2016,11,02,08,51,8.80
2016,11,02,08,52,6.40
2016,11,02,08,53,6.70
2016,11,02,08,54,5.30
2016,11,02,08,55,6.60
2016,11,02,08,56,5.20
2016,11,02,08,57,5.10
2016,11,02,08,58,6.10
2016,11,02,08,59,8.90
2016,11,02,09,00,11.00
2016,11,02,09,01,9.00
2016,11,02,09,02,6.70
2016,11,02,09,03,7.50
2016,11,02,09,04,5.40
2016,11,02,09,05,7.60
2016,11,02,09,06,8.10
2016,11,02,09,07,7.60
2016,11,02,09,08,6.80
2016,11,02,09,09,3.00
2016,11,02,09,10,4.10
2016,11,02,09,11,5.60
2016,11,02,09,12,6.30
2016,11,02,09,13,8.10
2016,11,02,09,14,10.10
2016,11,02,09,15,9.70
2016,11,02,09,16,8.80
2016,11,02,09,17,3.40
2016,11,02,09,18,1.20
2016,11,02,09,19,1.80
2016,11,02,09,20,0.50
2016,11,02,09,21,1.00
2016,11,02,09,22,4.40
2016,11,02,09,23,4.70
2016,11,02,09,24,6.80
2016,11,02,09,25,7.20
2016,11,02,09,26,5.50
2016,11,02,09,27,2.20
2016,11,02,09,28,4.50
2016,11,02,09,29,4.90
2016,11,02,09,30,6.20
2016,11,02,09,31,7.20
2016,11,02,09,32,8.30
2016,11,02,09,33,7.70
2016,11,02,09,34,6.80
2016,11,02,09,35,4.80
2016,11,02,09,36,8.60
2016,11,02,09,37,9.70
2016,11,02,09,38,10.70
2016,11,02,09,39,11.70
2016,11,02,09,40,13.40
2016,11,02,09,41,11.90
2016,11,02,09,42,8.80
2016,11,02,09,43,13.10
2016,11,02,09,44,10.90
2016,11,02,09,45,9.20
2016,11,02,09,46,7.00
2016,11,02,09,47,5.20
2016,11,02,09,48,10.00
2016,11,02,09,49,10.00
2016,11,02,09,50,9.30
2016,11,02,09,51,7.90
2016,11,02,09,52,8.40
2016,11,02,09,53,8.00
2016,11,02,09,54,6.40
2016,11,02,09,55,8.70
2016,11,02,09,56,9.40
2016,11,02,09,57,6.50
2016,11,02,09,58,5.60
2016,11,02,09,59,7.80
2016,11,02,10,00,9.10
2016,11,02,10,01,8.30
2016,11,02,10,02,8.30
2016,11,02,10,03,9.50
2016,11,02,10,04,7.20
2016,11,02,10,05,6.40
2016,11,02,10,06,3.30
2016,11,02,10,07,3.20
2016,11,02,10,08,7.00
2016,11,02,10,09,3.10
2016,11,02,10,10,0.30
2016,11,02,10,11,0.10
2016,11,02,10,12,2.20
2016,11,02,10,13,3.90
2016,11,02,10,14,5.50
2016,11,02,10,15,3.60
2016,11,02,10,16,3.10
2016,11,02,10,17,4.00
2016,11,02,10,18,1.90
2016,11,02,10,19,1.00
2016,11,02,10,20,2.20
2016,11,02,10,21,2.30
2016,11,02,10,22,1.90
2016,11,02,10,23,0.00
2016,11,02,10,24,0.10
2016,11,02,10,25,0.50
2016,11,02,10,26,2.40
2016,11,02,10,27,3.70
2016,11,02,10,28,3.20
2016,11,02,10,29,0.60
2016,11,02,10,30,0.00
2016,11,02,10,31,0.10
2016,11,02,10,32,1.10
2016,11,02,10,33,1.80
2016,11,02,10,34,2.10
2016,11,02,10,35,0.80
2016,11,02,10,36,0.10
2016,11,02,10,37,0.00
2016,11,02,10,38,0.10
2016,11,02,10,39,0.00
2016,11,02,10,40,0.10
2016,11,02,10,41,0.00
2016,11,02,10,42,0.10
2016,11,02,10,43,1.90
2016,11,02,10,44,1.20
2016,11,02,10,45,2.00
2016,11,02,10,46,0.40
2016,11,02,10,47,0.20
2016,11,02,10,48,1.30
2016,11,02,10,49,0.00
2016,11,02,10,50,0.00
2016,11,02,10,51,0.10
2016,11,02,10,52,0.00
2016,11,02,10,53,0.00
2016,11,02,10,54,0.00
2016,11,02,10,55,0.00
2016,11,02,10,56,0.00
2016,11,02,10,57,0.60
2016,11,02,10,58,0.10
2016,11,02,10,59,0.00
2016,11,02,11,00,0.00
2016,11,02,11,01,0.00
2016,11,02,11,02,0.00
2016,11,02,11,03,0.90
2016,11,02,11,04,0.70
2016,11,02,11,05,0.00
2016,11,02,11,06,0.00
2016,11,02,11,07,0.00
2016,11,02,11,08,1.20
2016,11,02,11,09,4.30
2016,11,02,11,10,0.50
2016,11,02,11,11,0.00
2016,11,02,11,12,0.00
2016,11,02,11,13,0.00
2016,11,02,11,14,0.00
2016,11,02,11,15,0.10
2016,11,02,11,16,0.50
2016,11,02,11,17,0.20
2016,11,02,11,18,0.00
2016,11,02,11,19,0.10
2016,11,02,11,20,0.00
2016,11,02,11,21,0.50
2016,11,02,11,22,0.10
2016,11,02,11,23,0.00
2016,11,02,11,24,0.00
2016,11,02,11,25,0.00
2016,11,02,11,26,0.00
2016,11,02,11,27,0.00
2016,11,02,11,28,0.00
2016,11,02,11,29,0.00
2016,11,02,11,30,0.00
2016,11,02,11,31,0.50
2016,11,02,11,32,1.80
2016,11,02,11,33,2.60
2016,11,02,11,34,4.00
2016,11,02,11,35,3.30
2016,11,02,11,36,3.20
2016,11,02,11,37,3.10
2016,11,02,11,38,2.60
2016,11,02,11,39,2.20
2016,11,02,11,40,0.50
2016,11,02,11,41,0.40
2016,11,02,11,42,0.00
2016,11,02,11,43,0.00
2016,11,02,11,44,0.00
2016,11,02,11,45,0.00
2016,11,02,11,46,0.10
2016,11,02,11,47,1.00
2016,11,02,11,48,1.50
2016,11,02,11,49,1.20
2016,11,02,11,50,1.90
2016,11,02,11,51,2.60
2016,11,02,11,52,0.30
2016,11,02,11,53,0.00
2016,11,02,11,54,0.00
2016,11,02,11,55,0.40
2016,11,02,11,56,0.00
2016,11,02,11,57,0.00
2016,11,02,11,58,0.00
2016,11,02,11,59,2.80
2016,11,02,12,00,3.60
2016,11,02,12,01,1.40
2016,11,02,12,02,0.00
2016,11,02,12,03,0.00
2016,11,02,12,04,0.00
2016,11,02,12,05,1.50
2016,11,02,12,06,1.80
2016,11,02,12,07,1.10
2016,11,02,12,08,0.40
2016,11,02,12,09,1.50
2016,11,02,12,10,4.80
2016,11,02,12,11,2.90
2016,11,02,12,12,1.30
2016,11,02,12,13,0.10
2016,11,02,12,14,0.00
2016,11,02,12,15,0.80
2016,11,02,12,16,0.50
2016,11,02,12,17,0.90
2016,11,02,12,18,0.90
2016,11,02,12,19,0.00
2016,11,02,12,20,1.20
2016,11,02,12,21,2.60
2016,11,02,12,22,3.40
2016,11,02,12,23,1.50
2016,11,02,12,24,2.30
2016,11,02,12,25,1.20
2016,11,02,12,26,2.00
2016,11,02,12,27,2.90
2016,11,02,12,28,5.40
2016,11,02,12,29,10.80
2016,11,02,12,30,5.90
2016,11,02,12,31,1.90
2016,11,02,12,32,1.30
2016,11,02,12,33,1.90
2016,11,02,12,34,0.30
2016,11,02,12,35,1.20
2016,11,02,12,36,0.70
2016,11,02,12,37,0.50
2016,11,02,12,38,0.80
2016,11,02,12,39,0.00
2016,11,02,12,40,2.00
2016,11,02,12,41,1.00
2016,11,02,12,42,0.60
2016,11,02,12,43,4.50
2016,11,02,12,44,2.20
2016,11,02,12,45,1.20
2016,11,02,12,46,0.50
2016,11,02,12,47,0.00
2016,11,02,12,48,0.00
2016,11,02,12,49,0.00
2016,11,02,12,50,0.50
2016,11,02,12,51,1.20
2016,11,02,12,52,2.70
2016,11,02,12,53,0.00
2016,11,02,12,54,0.40
2016,11,02,12,55,2.40
2016,11,02,12,56,4.30
2016,11,02,12,57,6.40
2016,11,02,12,58,2.90
2016,11,02,12,59,1.20
2016,11,02,13,00,1.00
2016,11,02,13,01,2.00
2016,11,02,13,02,0.80
2016,11,02,13,03,2.70
2016,11,02,13,04,0.20
2016,11,02,13,05,2.80
2016,11,02,13,06,2.60
2016,11,02,13,07,0.40
2016,11,02,13,08,3.70
2016,11,02,13,09,3.30
2016,11,02,13,10,7.30
2016,11,02,13,11,12.10
2016,11,02,13,12,12.80
2016,11,02,13,13,11.80
2016,11,02,13,14,15.50
2016,11,02,13,15,20.40
2016,11,02,13,16,17.10
2016,11,02,13,17,10.60
2016,11,02,13,18,15.10
2016,11,02,13,19,10.60
2016,11,02,13,20,11.60
2016,11,02,13,21,12.20
2016,11,02,13,22,25.30
2016,11,02,13,23,22.50
2016,11,02,13,24,22.90
2016,11,02,13,25,19.50
2016,11,02,13,26,17.90
2016,11,02,13,27,16.50
2016,11,02,13,28,16.70
2016,11,02,13,29,17.60
2016,11,02,13,30,18.10
2016,11,02,13,31,23.80
2016,11,02,13,32,21.90
2016,11,02,13,33,19.40
2016,11,02,13,34,19.00
2016,11,02,13,35,21.20
2016,11,02,13,36,21.20
2016,11,02,13,37,18.30
2016,11,02,13,38,19.50
2016,11,02,13,39,21.10
2016,11,02,13,40,20.20
2016,11,02,13,41,21.50
2016,11,02,13,42,25.80
2016,11,02,13,43,19.70
2016,11,02,13,44,13.70
2016,11,02,13,45,18.90
2016,11,02,13,46,19.90
2016,11,02,13,47,18.70
2016,11,02,13,48,16.50
2016,11,02,13,49,23.50
2016,11,02,13,50,22.00
2016,11,02,13,51,21.40
2016,11,02,13,52,17.60
2016,11,02,13,53,20.00
2016,11,02,13,54,24.20
2016,11,02,13,55,24.40
2016,11,02,13,56,21.80
2016,11,02,13,57,15.70
2016,11,02,13,58,21.10
2016,11,02,13,59,29.90
2016,11,02,14,00,27.10
2016,11,02,14,01,27.40
2016,11,02,14,02,28.80
2016,11,02,14,03,26.20
2016,11,02,14,04,24.90
2016,11,02,14,05,26.00
2016,11,02,14,06,25.40
2016,11,02,14,07,24.60
2016,11,02,14,08,33.40
2016,11,02,14,09,30.30
2016,11,02,14,10,23.20
2016,11,02,14,11,21.10
2016,11,02,14,12,25.20
2016,11,02,14,13,20.90
2016,11,02,14,14,17.90
2016,11,02,14,15,11.60
2016,11,02,14,16,15.80
2016,11,02,14,17,22.90
2016,11,02,14,18,17.40
2016,11,02,14,19,19.20
2016,11,02,14,20,14.80
2016,11,02,14,21,17.60
2016,11,02,14,22,17.70
2016,11,02,14,23,22.40
2016,11,02,14,24,17.80
2016,11,02,14,25,23.50
2016,11,02,14,26,22.80
2016,11,02,14,27,23.20
2016,11,02,14,28,24.00
2016,11,02,14,29,17.50
2016,11,02,14,30,22.80
2016,11,02,14,31,26.90
2016,11,02,14,32,20.70
2016,11,02,14,33,14.40
2016,11,02,14,34,17.70
2016,11,02,14,35,23.40
2016,11,02,14,36,19.90
2016,11,02,14,37,18.10
2016,11,02,14,38,17.40
2016,11,02,14,39,15.70
2016,11,02,14,40,17.50
2016,11,02,14,41,19.70
2016,11,02,14,42,11.60
2016,11,02,14,43,10.30
2016,11,02,14,44,14.00
2016,11,02,14,45,20.20
2016,11,02,14,46,18.50
2016,11,02,14,47,15.60
2016,11,02,14,48,16.60
2016,11,02,14,49,14.90
2016,11,02,14,50,14.60
2016,11,02,14,51,15.70
2016,11,02,14,52,19.80
2016,11,02,14,53,18.70
2016,11,02,14,54,16.00
2016,11,02,14,55,22.40
2016,11,02,14,56,21.40
2016,11,02,14,57,15.50
2016,11,02,14,58,12.00
2016,11,02,14,59,15.10
2016,11,02,15,00,12.40
2016,11,02,15,01,15.70
2016,11,02,15,02,15.20
2016,11,02,15,03,14.80
2016,11,02,15,04,16.00
2016,11,02,15,05,11.70
2016,11,02,15,06,10.30
2016,11,02,15,07,8.00
2016,11,02,15,08,7.50
2016,11,02,15,09,7.60
2016,11,02,15,10,8.00
2016,11,02,15,11,11.90
2016,11,02,15,12,11.40
2016,11,02,15,13,10.20
2016,11,02,15,14,17.20
2016,11,02,15,15,15.70
2016,11,02,15,16,12.80
2016,11,02,15,17,22.30
2016,11,02,15,18,19.50
2016,11,02,15,19,19.60
2016,11,02,15,20,22.70
2016,11,02,15,21,26.10
2016,11,02,15,22,25.30
2016,11,02,15,23,18.70
2016,11,02,15,24,20.40
2016,11,02,15,25,21.10
2016,11,02,15,26,23.90
2016,11,02,15,27,18.70
2016,11,02,15,28,13.10
2016,11,02,15,29,15.90
2016,11,02,15,30,21.60
2016,11,02,15,31,21.00
2016,11,02,15,32,23.90
2016,11,02,15,33,21.10
2016,11,02,15,34,19.30
2016,11,02,15,35,21.80
2016,11,02,15,36,19.70
2016,11,02,15,37,18.40
2016,11,02,15,38,20.20
2016,11,02,15,39,15.90
2016,11,02,15,40,17.80
2016,11,02,15,41,26.80
2016,11,02,15,42,25.70
2016,11,02,15,43,18.80
2016,11,02,15,44,25.20
2016,11,02,15,45,24.60
2016,11,02,15,46,18.70
2016,11,02,15,47,21.10
2016,11,02,15,48,28.80
2016,11,02,15,49,29.40
2016,11,02,15,50,20.90
2016,11,02,15,51,21.70
2016,11,02,15,52,21.60
2016,11,02,15,53,22.10
2016,11,02,15,54,24.90
2016,11,02,15,55,20.80
2016,11,02,15,56,28.30
2016,11,02,15,57,26.60
2016,11,02,15,58,31.60
2016,11,02,15,59,24.70
2016,11,02,16,00,23.60
2016,11,02,16,01,20.60
2016,11,02,16,02,31.50
2016,11,02,16,03,28.30
2016,11,02,16,04,24.80
2016,11,02,16,05,25.30
2016,11,02,16,06,21.40
2016,11,02,16,07,20.60
2016,11,02,16,08,23.50
2016,11,02,16,09,20.90
2016,11,02,16,10,24.20
2016,11,02,16,11,22.40
2016,11,02,16,12,32.60
2016,11,02,16,13,27.10
2016,11,02,16,14,26.30
2016,11,02,16,15,26.60
2016,11,02,16,16,38.30
2016,11,02,16,17,27.60
2016,11,02,16,18,26.80
2016,11,02,16,19,24.60
2016,11,02,16,20,26.30
2016,11,02,16,21,25.60
2016,11,02,16,22,24.90
2016,11,02,16,23,30.30
2016,11,02,16,24,26.00
2016,11,02,16,25,30.50
2016,11,02,16,26,30.40
2016,11,02,16,27,23.80
2016,11,02,16,28,26.00
2016,11,02,16,29,29.10
2016,11,02,16,30,27.70
2016,11,02,16,31,26.70
2016,11,02,16,32,27.90
2016,11,02,16,33,29.40
2016,11,02,16,34,22.10
2016,11,02,16,35,26.40
2016,11,02,16,36,33.10
2016,11,02,16,37,27.70
2016,11,02,16,38,25.00
2016,11,02,16,39,21.10
2016,11,02,16,40,28.70
2016,11,02,16,41,25.40
2016,11,02,16,42,33.50
2016,11,02,16,43,27.50
2016,11,02,16,44,27.60
2016,11,02,16,45,26.60
2016,11,02,16,46,23.90
2016,11,02,16,47,29.60
2016,11,02,16,48,28.50
2016,11,02,16,49,25.90
2016,11,02,16,50,26.20
2016,11,02,16,51,38.60
2016,11,02,16,52,31.40
2016,11,02,16,53,29.70
2016,11,02,16,54,43.90
2016,11,02,16,55,38.40
2016,11,02,16,56,26.10
2016,11,02,16,57,22.10
2016,11,02,16,58,31.30
2016,11,02,16,59,28.20
2016,11,02,17,00,25.40
2016,11,02,17,01,22.20
2016,11,02,17,02,24.30
2016,11,02,17,03,26.30
2016,11,02,17,04,23.60
2016,11,02,17,05,27.40
2016,11,02,17,06,25.30
2016,11,02,17,07,19.10
2016,11,02,17,08,16.80
2016,11,02,17,09,18.50
2016,11,02,17,10,20.20
2016,11,02,17,11,17.70
2016,11,02,17,12,15.60
2016,11,02,17,13,13.40
2016,11,02,17,14,14.60
2016,11,02,17,15,16.20
2016,11,02,17,16,16.30
2016,11,02,17,17,21.50
2016,11,02,17,18,15.20
2016,11,02,17,19,18.00
2016,11,02,17,20,19.90
2016,11,02,17,21,14.70
2016,11,02,17,22,12.40
2016,11,02,17,23,13.10
2016,11,02,17,24,14.70
2016,11,02,17,25,14.40
2016,11,02,17,26,18.90
2016,11,02,17,27,13.60
2016,11,02,17,28,13.20
2016,11,02,17,29,15.30
2016,11,02,17,30,16.80
2016,11,02,17,31,11.90
2016,11,02,17,32,12.50
2016,11,02,17,33,11.50
2016,11,02,17,34,9.00
2016,11,02,17,35,14.30
2016,11,02,17,36,13.20
2016,11,02,17,37,12.40
2016,11,02,17,38,15.30
2016,11,02,17,39,14.90
2016,11,02,17,40,14.10
2016,11,02,17,41,14.80
2016,11,02,17,42,13.80
2016,11,02,17,43,14.50
2016,11,02,17,44,12.60
2016,11,02,17,45,14.60
2016,11,02,17,46,16.40
2016,11,02,17,47,13.80
2016,11,02,17,48,13.20
2016,11,02,17,49,15.40
2016,11,02,17,50,12.20
2016,11,02,17,51,11.20
2016,11,02,17,52,13.80